Regional Weather Roundup
Issued by NWS

Home | Current Version | Previous Version | Graphics & Text | Print | Product List | Glossary On
Versions: 1 2 3 4 5 6 7 8 9 10 11 12 13 14 15 16 17 18 19 20 21 22 23 24 25 26 27 28 29 30 31 32 33 34 35 36 37 38 39 40 41 42 43 44 45 46 47 48 49 50
803
ASUS45 KTFX 260810
RWRMT
MONTANA REGIONAL WEATHER ROUNDUP
NATIONAL WEATHER SERVICE GREAT FALLS MT
200 AM MDT WED APR 26 2017

NOTE: "FAIR" INDICATES FEW OR NO CLOUDS BELOW 12000 FEET WITH NO
SIGNIFICANT WEATHER AND/OR OBSTRUCTIONS TO VISIBILITY.

MTZ001>007-043-260900-
WEST OF THE DIVIDE

CITY           SKY/WX    TMP DP  RH WIND       PRES   REMARKS
KALISPELL      CLOUDY    40  40 100 CALM      29.77F
MISSOULA       CLOUDY    42  38  85 CALM      29.81F
BUTTE          CLOUDY    38  31  76 CALM      29.79F
MULLAN PASS    CLOUDY    31  30  96 SW5       29.75F
ANACONDA         N/A     37  28  70 CALM      29.79F
DEER LODGE       N/A     37  30  75 CALM      29.82F
EUREKA           N/A     43  37  81 SE13      29.76F
HAMILTON         N/A     43  34  70 S6        29.80F
$$

MTZ008-052>055-260900-
SOUTHWEST MONTANA

CITY           SKY/WX    TMP DP  RH WIND       PRES   REMARKS
BOZEMAN        CLOUDY    40  35  83 SW5       29.80S
DILLON         CLOUDY    39  33  79 SW5       29.79F
W YELLOWSTONE  CLOUDY    32  32 100 SW10      29.83F FOG     WCI  24
ENNIS          CLOUDY    36  34  93 S9        29.85F WCI  29
THREE FORKS      N/A     41  34  76 CALM      29.81F
$$

MTZ009-010-012-014-046-048-049-054-260900-
EAST SLOPES AND CENTRAL MONTANA

CITY           SKY/WX    TMP DP  RH WIND       PRES   REMARKS
CUT BANK       CLOUDY    33  32  96 E9        29.79F WCI  25
GREAT FALLS    CLOUDY    37  36  96 CALM      29.80F
MALMSTROM AFB  CLOUDY    39  37  92 CALM      29.80F
HELENA         MOCLDY    37  33  85 CALM      29.80S
AUGUSTA        MOCLDY    35  35  99 S6        29.77F WCI  30
BOWMANS CRNR     N/A     32  32  98 S9        29.77F WCI  25
CHOTEAU          N/A     36  36 100 E6        29.80F WCI  31
FAIRFIELD      MOCLDY    37  33  85 S6        29.78F
POWER          CLOUDY    38  36  94 S7        29.78F
RAYNESFORD       N/A     34  32  94 CALM      29.80F
ULM              N/A     33  32  99 SE9       29.80F WCI  25
$$

MTZ011-013-016-021-045-047-050-051-260900-
NORTH CENTRAL MONTANA

CITY           SKY/WX    TMP DP  RH WIND       PRES   REMARKS
HAVRE          CLOUDY    38  35  89 E7        29.83S
LEWISTOWN      CLOUDY    33  31  92 SE7       29.80F WCI  27
N BAR RANCH    CLOUDY    30  30 100 CALM      29.83F
CHINOOK          N/A     37  34  87 E10       29.85S WCI  30
DENTON         FOG       34  34  99 MISG      29.78F VSB 3/8
FORT BENTON      N/A     37  36  93 MISG      29.83F
GEYSER         MOCLDY    34  33  97 CALM      29.79S
GRASS RANGE    LGT SNOW  31  32 100 CALM      29.79F FOG
JUDITH GAP     CLOUDY    33  32  96 S10       29.80F FOG     WCI  25
STANFORD       FOG       31  32 100 CALM      29.79F VSB 3/8
WINIFRED       MOCLDY    32  33 100 E7        29.80F WCI  26
$$

MTZ017>020-022>027-061-062-260900-
NORTHEAST MONTANA

CITY           SKY/WX    TMP DP  RH WIND       PRES   REMARKS
GLASGOW        CLOUDY    36  25  64 E14       29.93F WCI  27
JORDAN           N/A     35  26  69 S12       29.90F WCI  27
SIDNEY         CLOUDY    33  27  78 NE6       29.96S WCI  28
WOLF POINT     CLOUDY    35  25  66 E5        29.97S
MALTA          CLOUDY    34  28  80 E3        29.89F
PLENTYWOOD       N/A     32  21  64 E8        29.98R WCI  25
POPLAR           N/A     34  25  69 CALM      29.98S
SCOBEY           N/A     31  19  61 E1        29.94S
$$

MTZ028>42-056>058-260900-
SOUTHCENTRAL AND SOUTHEAST MONTANA

CITY           SKY/WX    TMP DP  RH WIND       PRES   REMARKS
BAKER          CLOUDY    30  25  81 W3        29.92F
BILLINGS       CLOUDY    34  29  82 E7        29.85F WCI  28
LIVINGSTON     LGT SNOW  34  33  96 E5        29.81F FOG
MILES CITY     CLOUDY    35  24  64 E5        29.92F
BIG TIMBER     CLOUDY    32  32 100 SE5       29.84F FOG
EKALAKA          N/A     27  22  81 SE3       29.88F
LAUREL           N/A     34  23  64 NE2       29.84F
ROUNDUP          N/A     35  26  70 SE3       29.78F
$$

REGIONAL REPORTS...DAKOTAS

CITY           SKY/WX    TMP DP  RH WIND       PRES   REMARKS
WILLISTON      CLOUDY    30  22  72 NE7       29.98S WCI  23
MINOT          PTCLDY    29  22  75 N12       29.94F WCI  19
DICKINSON      CLOUDY    31  24  75 NE7       29.89F WCI  24
BEACH          CLOUDY    28  28 100 W5        29.95F
TIOGA            N/A     23  23 100 E8        29.97F WCI  14
WATFORD CITY   MOCLDY    25  23  93 N6        29.95F WCI  18
BISMARCK       PTCLDY    34  25  69 N9        29.89F WCI  27
GRAND FORKS    CLOUDY    33  27  78 NE20      29.85F WCI  21
FARGO          FRZ RAIN  32  29  88 N20G28    29.76F WCI  20
BUFFALO SD       N/A     31  25  78 NW9       29.83F WCI  23
RAPID CITY     CLOUDY    27  24  89 NW17      29.87F WCI  14
$$

REGIONAL REPORTS...WYOMING/IDAHO/WASHINGTON

CITY           SKY/WX    TMP DP  RH WIND       PRES   REMARKS
GILLETTE       CLOUDY    27  27 100 W5        29.86F
SHERIDAN       CLOUDY    31  26  82 E8        29.86F WCI  23
CODY           CLOUDY    33  31  92 CALM      29.81F
YELLOWSTONE LA   N/A     28  28 100 CALM      29.85
IDAHO FALLS    MOCLDY    41  31  67 SW17      29.84S
SALMON         CLOUDY    37  34  87 CALM      29.81F
BOISE          CLOUDY    47  39  74 E9        29.89F
SPOKANE        CLOUDY    45  35  68 SW13      29.78F
$$

REGIONAL REPORTS...ALBERTA

CITY           SKY/WX    TMP DP  RH WIND       PRES   REMARKS
EDMONTON       CLOUDY    30  28  93 SE7       29.87F WCI  23
CALGARY        MOCLDY    27  23  86 SE6       29.80F WCI  20
LETHBRIDGE     LGT SNOW  32  32 100 S3        29.81F
MEDICINE HAT   CLOUDY    37  36  93 NE6       29.82F
WATERTON GATE    N/A     32  30  93 NE6         N/A  WCI  26
MILK RIVER       N/A     34  32  93 NE3         N/A
ONEFOUR          N/A     34  34 100 E7          N/A  WCI  28
$$

REGIONAL REPORTS...SASKATCHEWAN

CITY           SKY/WX    TMP DP  RH WIND       PRES   REMARKS
SWIFT CURRENT  FLURRIES  30  28  93 SE12      29.89F WCI  21
REGINA         MOCLDY    30  19  64 E16       30.02R WCI  19
SASKATOON      CLOUDY    34  21  60 SE8       30.02S WCI  27
CYPRESS HILLS    N/A     28  27  93 S10         N/A  WCI  19
VAL MARIE        N/A     36  25  64 SE10        N/A  WCI  28
ROCKGLEN         N/A     30  27  86 SE7         N/A  WCI  23
ASSINIBOIA       N/A     30  28  93 SE9         N/A  WCI  22
$$




USA.gov is the U.S. government's official web portal to all federal, state and local government web resources and services.